Springfield, MO

10:20 PM CST on December 13, 2019 (GMT -0600)
Springfield-Branson Regional

Weather History for KSGF - October, 2019

Change the Weather History Date:

Tuesday, October 1, 2019

  Actual Average Record
Temperature  
Mean Temperature 80 °F 63 °F  
Max Temperature 90 °F 74 °F 92 °F (1953)
Min Temperature 71 °F 51 °F 32 °F (1985)
Degree Days  
Heating Degree Days 0 5  
Month to date heating degree days 5  
Since 1 July heating degree days 60  
Cooling Degree Days 16 2  
Month to date cooling degree days 2  
Year to date cooling degree days 1361  
Growing Degree Days 30 (Base 50)    
Moisture  
Dew Point 66 °F    
Average Humidity 67    
Maximum Humidity 84    
Minimum Humidity 48    
Precipitation  
Precipitation 0.00 in 0.13 in 2.84 in (1986)
Month to date precipitation 0.13  
Year to date precipitation 34.85  
Snow  
Snow 0.00 in - - ()
Month to date snowfall  
Since 1 July snowfall  
Since 1 September snowfall  
Snow Depth -    
Sea Level Pressure  
Sea Level Pressure 29.96 in    
Wind  
Wind Speed 12 mph (South)    
Max Wind Speed 17 mph    
Max Gust Speed 30 mph    
Visibility 10 miles    
Events      
T = Trace of Precipitation, MM = Missing Value Source: NWS Daily Summary

Daily Weather History Graph

Daily Weather History Graph

Search for Another Location

Airport or City:

Astronomy

Oct. 01, 2019 Rise Set
Actual Time 7:08 AM CDT 6:57 PM CDT
Civil Twilight 6:42 AM CDT 7:23 PM CDT
Nautical Twilight 6:12 AM CDT 7:53 PM CDT
Astronomical Twilight 5:42 AM CDT 8:23 PM CDT
Moon 10:21 AM CDT (10/1) 9:15 PM CDT (10/1)
Length of Visible Light 12h 40m
Length of Day
11h 48m
Waxing Crescent, 12% of the Moon is Illuminated
Oct 1
Waxing Crescent
Oct 5
First Quarter
Oct 13
Full
Oct 21
Last Quarter
Oct 27
New

Hourly Weather History & Observations

Time (CDT) Temp. Heat Index Dew Point Humidity Pressure Visibility Wind Dir Wind Speed Gust Speed Precip Events Conditions
12:52 AM 73.9 °F - 66.0 °F 76% 29.96 in 10.0 mi South 12.7 mph - N/A   Clear
1:52 AM 73.0 °F - 64.0 °F 73% 29.95 in 10.0 mi South 11.5 mph - N/A   Clear
2:52 AM 73.0 °F - 63.0 °F 71% 29.96 in 10.0 mi South 11.5 mph - N/A   Clear
3:52 AM 72.0 °F - 63.0 °F 73% 29.95 in 10.0 mi SSE 12.7 mph - N/A   Clear
4:52 AM 71.1 °F - 64.0 °F 78% 29.96 in 10.0 mi South 10.4 mph - N/A   Clear
5:52 AM 71.1 °F - 64.9 °F 81% 29.98 in 10.0 mi South 10.4 mph - N/A   Clear
6:52 AM 71.1 °F - 66.0 °F 84% 30.00 in 10.0 mi SSE 12.7 mph - N/A   Clear
7:52 AM 72.0 °F - 66.0 °F 81% 30.00 in 10.0 mi South 13.8 mph - N/A   Clear
8:52 AM 75.9 °F - 66.9 °F 74% 30.01 in 10.0 mi South 13.8 mph - N/A   Clear
9:52 AM 80.1 °F 82.9 °F 69.1 °F 69% 30.02 in 10.0 mi SSW 13.8 mph - N/A   Clear
10:52 AM 84.0 °F 87.0 °F 68.0 °F 58% 30.01 in 10.0 mi SW 16.1 mph 29.9 mph N/A   Clear
11:52 AM 86.0 °F 90.1 °F 69.1 °F 57% 30.01 in 10.0 mi SW 17.3 mph 23.0 mph N/A   Partly Cloudy
12:52 PM 86.0 °F 90.1 °F 69.1 °F 57% 29.99 in 10.0 mi SSW 13.8 mph - N/A   Scattered Clouds
1:52 PM 88.0 °F 92.1 °F 69.1 °F 53% 29.96 in 10.0 mi SW 10.4 mph - N/A   Scattered Clouds
2:52 PM 89.1 °F 93.7 °F 69.1 °F 52% 29.93 in 10.0 mi SSW 12.7 mph - N/A   Partly Cloudy
3:52 PM 89.1 °F 92.9 °F 68.0 °F 50% 29.91 in 10.0 mi South 15.0 mph - N/A   Clear
4:52 PM 88.0 °F 90.3 °F 66.0 °F 48% 29.90 in 10.0 mi South 13.8 mph - N/A   Partly Cloudy
5:52 PM 86.0 °F 87.6 °F 64.9 °F 49% 29.90 in 10.0 mi South 12.7 mph - N/A   Clear
6:52 PM 80.1 °F 82.1 °F 66.0 °F 62% 29.91 in 10.0 mi South 9.2 mph - N/A   Clear
7:52 PM 77.0 °F - 64.9 °F 66% 29.92 in 10.0 mi South 9.2 mph - N/A   Clear
8:52 PM 75.9 °F - 64.9 °F 69% 29.93 in 10.0 mi South 9.2 mph - N/A   Clear
9:52 PM 73.0 °F - 64.9 °F 76% 29.94 in 10.0 mi South 6.9 mph - N/A   Clear
10:52 PM 71.1 °F - 64.9 °F 81% 29.95 in 10.0 mi SSW 6.9 mph - N/A   Clear
11:52 PM 73.0 °F - 66.0 °F 79% 29.93 in 10.0 mi South 10.4 mph - N/A   Clear